Tulsa, OK

11:43 PM CDT on September 23, 2017 (GMT -0500)
Tulsa International

Weather History for KTUL - December, 2013

Change the Weather History Date:

Monday, December 9, 2013

  Actual Average Record
Temperature  
Mean Temperature 24 °F 41 °F  
Max Temperature 28 °F 51 °F 75 °F (1993)
Min Temperature 19 °F 31 °F 0 °F (1917)
Degree Days  
Heating Degree Days 41 24  
Month to date heating degree days 288 209  
Since 1 July heating degree days 989 845  
Moisture  
Dew Point 15 °F    
Average Humidity 68    
Maximum Humidity 81    
Minimum Humidity 55    
Precipitation  
Precipitation T in 0.09 in 1.71 in (1999)
Month to date precipitation 0.34 0.78  
Year to date precipitation 31.65 39.26  
Snow  
Snow 0.10 in - - ()
Month to date snowfall 5.0  
Since 1 July snowfall 5.0  
Snow Depth 2.00 in    
Sea Level Pressure  
Sea Level Pressure 30.35 in    
Wind  
Wind Speed 11 mph (NNW)    
Max Wind Speed 16 mph    
Max Gust Speed 23 mph    
Visibility 9 miles    
Events Snow    
T = Trace of Precipitation, MM = Missing Value Source: NWS Daily Summary

Daily Weather History Graph

Daily Weather History Graph

Search for Another Location

Airport or City:

Trip Planner

Search our weather history database for the weather conditions in past years. The results will help you decide how hot, cold, wet, or windy it might be!

Date:

Astronomy

Dec. 09, 2013 Rise Set
Actual Time 7:23 AM CST 5:08 PM CST
Civil Twilight 6:54 AM CST 5:37 PM CST
Nautical Twilight 6:22 AM CST 6:09 PM CST
Astronomical Twilight 5:51 AM CST 6:40 PM CST
Moon 12:27 PM CST (12/9) No Moon Set
Length of Visible Light 10h 42m
Length of Day
9h 45m
Waxing Crescent, 51% of the Moon is Illuminated
Dec 9
Waxing Crescent
Dec 17
Full
Dec 25
Last Quarter
Jan 1
New
Jan 7
First Quarter

Hourly Weather History & Observations

Time (CST) Temp. Windchill Dew Point Humidity Pressure Visibility Wind Dir Wind Speed Gust Speed Precip Events Conditions
12:36 AM 28.0 °F 22.8 °F 19.9 °F 72% 30.22 in 10.0 mi SW 4.6 mph - N/A   Mostly Cloudy
12:53 AM 25.0 °F 20.7 °F 19.0 °F 78% 30.24 in 10.0 mi WNW 3.5 mph - N/A   Scattered Clouds
1:43 AM 23.0 °F 17.0 °F 19.0 °F 85% 30.22 in 10.0 mi NNW 4.6 mph - N/A   Mostly Cloudy
1:53 AM 24.1 °F 18.2 °F 19.9 °F 84% 30.24 in 10.0 mi NNW 4.6 mph - N/A   Overcast
2:53 AM 26.1 °F 19.4 °F 21.0 °F 81% 30.26 in 10.0 mi NNW 5.8 mph - N/A   Overcast
3:53 AM 27.0 °F 17.3 °F 19.0 °F 72% 30.25 in 10.0 mi North 10.4 mph - N/A   Overcast
4:53 AM 26.1 °F 16.8 °F 18.0 °F 71% 30.29 in 10.0 mi NNW 9.2 mph - N/A   Overcast
5:53 AM 23.0 °F 12.4 °F 15.1 °F 72% 30.31 in 10.0 mi North 10.4 mph - N/A   Scattered Clouds
6:53 AM 21.9 °F 9.2 °F 14.0 °F 72% 30.34 in 10.0 mi NNW 13.8 mph - N/A   Overcast
7:53 AM 21.0 °F 8.1 °F 14.0 °F 74% 30.38 in 10.0 mi NNW 13.8 mph - N/A   Overcast
8:53 AM 21.0 °F 8.6 °F 14.0 °F 74% 30.38 in 10.0 mi North 12.7 mph - N/A   Overcast
9:53 AM 21.9 °F 9.8 °F 14.0 °F 72% 30.43 in 10.0 mi NNE 12.7 mph - N/A   Overcast
10:53 AM 24.1 °F 12.0 °F 14.0 °F 65% 30.41 in 10.0 mi North 13.8 mph - N/A   Overcast
11:53 AM 24.1 °F 11.5 °F 10.9 °F 57% 30.38 in 10.0 mi NNE 15.0 mph 20.7 mph N/A   Overcast
12:53 PM 24.1 °F 12.5 °F 10.9 °F 57% 30.35 in 10.0 mi NNE 12.7 mph - N/A   Overcast
1:53 PM 24.1 °F 12.5 °F 12.9 °F 62% 30.32 in 10.0 mi North 12.7 mph - N/A   Overcast
2:53 PM 24.1 °F 12.5 °F 12.9 °F 62% 30.32 in 10.0 mi North 12.7 mph - N/A   Overcast
3:53 PM 23.0 °F 11.7 °F 14.0 °F 68% 30.33 in 10.0 mi North 11.5 mph - N/A   Overcast
4:53 PM 21.9 °F 9.2 °F 14.0 °F 72% 30.35 in 10.0 mi North 13.8 mph - N/A   Overcast
5:53 PM 19.9 °F 7.9 °F 14.0 °F 78% 30.36 in 10.0 mi NNW 11.5 mph - N/A   Overcast
6:53 PM 19.0 °F 6.1 °F 12.9 °F 77% 30.38 in 10.0 mi NNW 12.7 mph - N/A   Overcast
7:53 PM 19.0 °F 8.2 °F 12.0 °F 74% 30.41 in 10.0 mi NNW 9.2 mph - N/A   Overcast
8:53 PM 19.0 °F 9.0 °F 12.9 °F 77% 30.42 in 6.0 mi NNW 8.1 mph - 0.00 in Snow Light Snow
9:53 PM 19.0 °F 9.0 °F 12.9 °F 77% 30.44 in 6.0 mi NNW 8.1 mph - 0.00 in Snow Light Snow
10:03 PM 19.0 °F 9.0 °F 12.9 °F 77% 30.42 in 2.5 mi WNW 8.1 mph - 0.00 in Snow Light Snow
10:28 PM 19.0 °F 8.2 °F 12.9 °F 77% 30.42 in 3.0 mi NW 9.2 mph - 0.00 in Snow Light Snow
10:53 PM 19.0 °F 7.5 °F 14.0 °F 81% 30.45 in 7.0 mi NW 10.4 mph - 0.00 in Snow Light Snow
11:53 PM 19.0 °F 9.0 °F 12.9 °F 77% 30.45 in 9.0 mi NW 8.1 mph - 0.00 in Snow Light Snow